Pineville, WV

12:09 PM EDT on October 20, 2017 (GMT -0400)
Pineville

Weather History for KI16 - December, 2013

Change the Weather History Date:

Tuesday, December 24, 2013

  Actual Average (KBKW) Record (KBKW)
Temperature  
Mean Temperature 25 °F -  
Max Temperature 32 °F 40 °F 67 °F (1964)
Min Temperature 17 °F 23 °F -11 °F (1983)
Degree Days  
Heating Degree Days 40    
Moisture  
Dew Point 22 °F    
Average Humidity 79    
Maximum Humidity 96    
Minimum Humidity 60    
Precipitation  
Precipitation 0.00 in - - ()
Sea Level Pressure  
Sea Level Pressure 30.39 in    
Wind  
Wind Speed - (North)    
Max Wind Speed -    
Max Gust Speed -    
Visibility 9 miles    
Events Snow    
Averages and records for this station are not official NWS values.
T = Trace of Precipitation, MM = Missing Value Source: NWS Daily Summary

Daily Weather History Graph

Daily Weather History Graph

Search for Another Location

Airport or City:

Trip Planner

Search our weather history database for the weather conditions in past years. The results will help you decide how hot, cold, wet, or windy it might be!

Date:

Astronomy

Dec. 24, 2013 Rise Set
Actual Time 7:38 AM EST 5:13 PM EST
Civil Twilight 7:09 AM EST 5:42 PM EST
Nautical Twilight 6:36 AM EST 6:15 PM EST
Astronomical Twilight 6:04 AM EST 6:47 PM EST
Moon No Moon Rise 11:39 AM EST (12/24)
Length of Visible Light 10h 32m
Length of Day
9h 34m
Waning Gibbous, 59% of the Moon is Illuminated
Dec 24
Waning Gibbous
Dec 25
Last Quarter
Jan 1
New
Jan 7
First Quarter
Jan 15
Full

Hourly Weather History & Observations

Time (EST) Temp. Dew Point Humidity Pressure Visibility Wind Dir Wind Speed Gust Speed Precip Events Conditions
12:15 AM 33.1 °F 27.5 °F 80% 30.32 in 10.0 mi North - - N/A   Overcast
12:35 AM 33.1 °F 27.9 °F 81% 30.32 in 10.0 mi North - - N/A   Overcast
12:55 AM 33.1 °F 27.3 °F 79% 30.32 in 10.0 mi North - - N/A   Overcast
1:15 AM 32.9 °F 27.0 °F 79% 30.31 in 10.0 mi North - - N/A   Overcast
1:35 AM 32.9 °F 26.6 °F 78% 30.31 in 10.0 mi North - - N/A   Overcast
1:55 AM 32.5 °F 27.0 °F 80% 30.31 in 10.0 mi North - - N/A   Overcast
2:15 AM 32.5 °F 26.6 °F 79% 30.30 in 10.0 mi North - - N/A   Overcast
2:35 AM 32.5 °F 27.3 °F 81% 30.31 in 10.0 mi North - - N/A   Overcast
2:55 AM 32.4 °F 27.1 °F 81% 30.31 in 10.0 mi North - - N/A   Overcast
3:15 AM 32.4 °F 27.5 °F 82% 30.31 in 10.0 mi North - - N/A   Overcast
3:35 AM 32.2 °F 26.8 °F 80% 30.31 in 10.0 mi North - - N/A   Overcast
3:55 AM 32.0 °F 26.2 °F 79% 30.30 in 10.0 mi North - - N/A   Overcast
4:15 AM 32.0 °F 26.2 °F 79% 30.30 in 10.0 mi North - - N/A   Overcast
4:35 AM 32.0 °F 26.2 °F 79% 30.30 in 10.0 mi North - - N/A   Overcast
4:55 AM 32.0 °F 26.1 °F 79% 30.29 in 10.0 mi North - - N/A   Overcast
5:15 AM 32.0 °F 25.7 °F 78% 30.29 in 10.0 mi North - - N/A   Overcast
5:35 AM 32.0 °F 25.5 °F 77% 30.29 in 10.0 mi North - - N/A   Overcast
5:55 AM 32.0 °F 25.5 °F 77% 30.30 in 10.0 mi North - - N/A   Overcast
6:15 AM 32.0 °F 25.7 °F 78% 30.30 in 10.0 mi North - - N/A   Overcast
6:35 AM 32.0 °F 25.9 °F 78% 30.30 in 10.0 mi North - - N/A   Overcast
6:55 AM 32.0 °F 26.2 °F 79% 30.30 in 10.0 mi North - - N/A   Overcast
7:15 AM 32.0 °F 26.4 °F 80% 30.31 in 10.0 mi North - - N/A   Overcast
7:35 AM 32.0 °F 26.4 °F 80% 30.31 in 7.0 mi North - - N/A Snow Light Snow
7:55 AM 31.8 °F 27.5 °F 84% 30.31 in 5.0 mi North - - N/A Snow Light Snow
8:15 AM 31.5 °F 27.9 °F 87% 30.32 in 7.0 mi North - - N/A Snow Light Snow
8:35 AM 31.5 °F 28.0 °F 87% 30.32 in 10.0 mi North - - N/A   Overcast
8:55 AM 31.6 °F 27.9 °F 86% 30.33 in 7.0 mi North - - N/A Snow Light Snow
9:15 AM 31.5 °F 26.2 °F 81% 30.34 in 7.0 mi North - - N/A   Overcast
9:35 AM 30.9 °F 25.7 °F 81% 30.36 in 2.5 mi North - - N/A Snow Light Snow
9:55 AM 30.4 °F 26.8 °F 86% 30.37 in 1.0 mi North - - N/A Snow Light Snow
10:15 AM 30.7 °F 27.3 °F 87% 30.38 in 4.0 mi North - - N/A Snow Light Snow
10:35 AM 30.2 °F 26.4 °F 86% 30.38 in 2.5 mi North - - N/A Snow Light Snow
10:55 AM 30.2 °F 27.0 °F 88% 30.39 in 1.0 mi North - - N/A Snow Light Snow
11:15 AM 29.3 °F 27.3 °F 92% 30.39 in 1.0 mi North - - N/A Snow Light Snow
11:35 AM 28.9 °F 25.9 °F 88% 30.39 in 1.8 mi North - - N/A Snow Light Snow
11:55 AM 28.9 °F 25.3 °F 86% 30.39 in 2.5 mi North - - N/A Snow Light Snow
12:15 PM 29.3 °F 24.3 °F 81% 30.39 in 7.0 mi North - - N/A Snow Light Snow
12:35 PM 28.4 °F 24.4 °F 85% 30.39 in 1.5 mi North - - N/A Snow Light Snow
12:55 PM 29.1 °F 22.1 °F 75% 30.39 in 10.0 mi North - - N/A   Overcast
1:15 PM 30.6 °F 21.7 °F 70% 30.39 in 10.0 mi North - - N/A   Overcast
1:35 PM 29.3 °F 21.0 °F 71% 30.39 in 7.0 mi North - - N/A Snow Light Snow
1:55 PM 28.4 °F 21.6 °F 76% 30.40 in 10.0 mi North - - N/A   Mostly Cloudy
2:15 PM 29.1 °F 21.6 °F 73% 30.41 in 10.0 mi North - - N/A   Mostly Cloudy
2:35 PM 29.3 °F 19.8 °F 68% 30.41 in 10.0 mi North - - N/A   Overcast
2:55 PM 30.6 °F 19.4 °F 63% 30.41 in 10.0 mi North - - N/A   Mostly Cloudy
3:15 PM 28.6 °F 18.1 °F 65% 30.42 in 10.0 mi North - - N/A   Scattered Clouds
3:35 PM 28.4 °F 18.0 °F 65% 30.42 in 10.0 mi North - - N/A   Clear
3:55 PM 27.9 °F 16.5 °F 62% 30.43 in 10.0 mi North - - N/A   Clear
4:15 PM 27.5 °F 15.6 °F 61% 30.44 in 10.0 mi North - - N/A   Scattered Clouds
4:35 PM 27.3 °F 14.9 °F 60% 30.44 in 10.0 mi North - - N/A   Mostly Cloudy
4:55 PM 27.0 °F 15.3 °F 61% 30.45 in 10.0 mi North - - N/A   Overcast
5:15 PM 26.4 °F 15.4 °F 63% 30.46 in 10.0 mi North - - N/A   Overcast
5:35 PM 26.2 °F 15.4 °F 64% 30.47 in 10.0 mi North - - N/A   Mostly Cloudy
5:55 PM 25.7 °F 15.1 °F 64% 30.47 in 10.0 mi North - - N/A   Scattered Clouds
6:15 PM 25.3 °F 14.0 °F 62% 30.47 in 10.0 mi North - - N/A   Scattered Clouds
6:35 PM 24.6 °F 14.9 °F 67% 30.47 in 10.0 mi North - - N/A   Clear
6:55 PM 24.3 °F 13.8 °F 64% 30.48 in 10.0 mi North - - N/A   Clear
7:15 PM 23.5 °F 16.2 °F 73% 30.48 in 10.0 mi North - - N/A   Clear
7:35 PM 23.0 °F 14.9 °F 71% 30.48 in 10.0 mi North - - N/A   Clear
7:55 PM 23.0 °F 15.1 °F 72% 30.48 in 10.0 mi North - - N/A   Clear
8:15 PM 21.7 °F 15.8 °F 78% 30.48 in 10.0 mi North - - N/A   Clear
8:35 PM 20.5 °F 17.2 °F 87% 30.48 in 10.0 mi North - - N/A   Clear
8:55 PM 20.3 °F 16.9 °F 87% 30.48 in 10.0 mi North - - N/A   Clear
9:15 PM 19.9 °F 17.2 °F 89% 30.48 in 10.0 mi North - - N/A   Clear
9:35 PM 19.6 °F 17.2 °F 91% 30.48 in 10.0 mi North - - N/A   Clear
9:55 PM 19.2 °F 16.9 °F 91% 30.48 in 10.0 mi North - - N/A   Clear
10:15 PM 18.9 °F 17.2 °F 93% 30.47 in 10.0 mi North - - N/A   Clear
10:35 PM 18.1 °F 16.7 °F 94% 30.48 in 10.0 mi North - - N/A   Clear
10:55 PM 18.0 °F 16.7 °F 95% 30.49 in 10.0 mi North - - N/A   Clear
11:15 PM 17.6 °F 16.5 °F 96% 30.47 in 10.0 mi North - - N/A   Clear
11:35 PM 17.6 °F 16.7 °F 96% 30.47 in 10.0 mi North - - N/A   Clear
11:55 PM 17.2 °F 16.3 °F 96% 30.47 in 10.0 mi North - - N/A   Clear